Location: Barcelona
(41.3830°N, 2.1830°E)
Time: 06:23:43
(UTC+01:00)

ISS - Pass Details

Date: 26 November 2020
Orbit: 418 x 420 km, 51.6° (Epoch: 04 December)

Event Time Altitude Azimuth Distance (km) Brightness Sun altitude
Rises 18:07:04 0° 264° (W) 2,356 1.9 -8.1°
Reaches altitude 10° 18:09:22 10° 277° (W) 1,495 0.1 -8.5°
Maximum altitude 18:12:16 27° 337° (NNW) 851 -2.2 -9.1°
Drops below altitude 10° 18:15:11 10° 37° (NE) 1,499 -1.5 -9.6°
Enters shadow 18:15:12 10° 38° (NE) 1,506 -1.4 -9.6°
